EW7112 Weather Reports


time (UTC)temp
C
wind
direction
speed
KPH
gust
KPH
rain 1hr
cm
rain 24hr
cm
rain mn
cm
humidity
%
barometer
mb
20260903071543 27 78 1.6 4.8 0.00 0.00 0.00 72 990.3
20260903070045 27 78 0.0 4.8 0.00 0.00 0.00 72 990.3
20260903064540 27 158 0.0 4.8 0.00 0.00 0.00 71 990.5
20260903063039 27 131 0.0 8.0 0.00 0.00 0.00 71 990.6
20260903061555 27 121 3.2 8.0 0.00 0.00 0.00 70 990.8
20260903060036 27 131 3.2 11.3 0.00 0.00 0.00 70 990.8
20260903054533 28 116 8.0 14.5 0.00 0.00 0.00 68 991.1
20260903053030 28 91 6.4 16.1 0.00 0.00 0.00 66 991.1
20260903051527 28 104 3.2 14.5 0.00 0.00 0.00 65 990.9
20260903050023 29 74 6.4 14.5 0.00 0.00 0.00 64 990.9
20260903044522 29 107 6.4 16.1 0.00 0.00 0.00 63 990.7
20260903043021 29 103 6.4 16.1 0.00 0.00 0.00 62 990.7
20260903041526 30 118 6.4 14.5 0.00 0.00 0.00 61 990.8
20260903040021 30 150 0.0 11.3 0.00 0.00 0.00 59 990.7
20260903034520 30 100 8.0 12.9 0.00 0.00 0.00 58 990.8
20260903033120 31 130 4.8 17.7 0.00 0.00 0.00 57 990.8
20260903031523 31 91 8.0 17.7 0.00 0.00 0.00 56 990.6
20260903030031 32 75 8.0 14.5 0.00 0.00 0.00 54 990.4
20260903024518 32 76 6.4 17.7 0.00 0.00 0.00 53 990.2
20260903023018 32 129 8.0 19.3 0.00 0.00 0.00 50 990.0
20260903021518 33 68 8.0 14.5 0.00 0.00 0.00 48 989.8
20260903020017 33 98 4.8 17.7 0.00 0.00 0.00 48 989.6
20260903014516 33 108 6.4 22.5 0.00 0.00 0.00 48 989.5
20260903013027 33 108 4.8 16.1 0.00 0.00 0.00 48 989.2
20260903011516 33 58 6.4 16.1 0.00 0.00 0.00 48 989.0
20260903010027 34 88 8.0 16.1 0.00 0.00 0.00 48 988.9
20260903004513 34 102 6.4 17.7 0.00 0.00 0.00 47 989.0
20260903003012 35 120 6.4 14.5 0.00 0.00 0.00 47 988.9
20260903001511 35 134 8.0 17.7 0.00 0.00 0.00 45 988.8
20260903000011 36 120 8.0 20.9 0.00 0.00 0.00 44 988.8
20260902234508 37 131 3.2 12.9 0.00 0.00 0.00 39 988.6
20260902233006 37 83 3.2 16.1 0.00 0.00 0.00 37 988.5
20260902231504 37 114 6.4 14.5 0.00 0.00 0.00 37 988.5
20260902230003 37 106 4.8 12.9 0.00 0.00 0.00 36 988.4
20260902224607 37 69 3.2 14.5 0.00 0.00 0.00 37 988.6
20260902223059 37 130 6.4 12.9 0.00 0.00 0.00 36 988.6
20260902221618 37 4 1.6 9.7 0.00 0.00 0.00 38 988.7
20260902220101 37 157 3.2 8.0 0.00 0.00 0.00 37 988.8
20260902214601 38 97 1.6 16.1 0.00 0.00 0.00 37 988.9
20260902213053 37 1 6.4 17.7 0.00 0.00 0.00 39 989.3
20260902211553 37 81 0.0 8.0 0.00 0.00 0.00 38 989.4
20260902210050 37 67 4.8 14.5 0.00 0.00 0.00 39 989.5
20260902204549 37 84 8.0 17.7 0.00 0.00 0.00 39 989.7
20260902203046 37 4 6.4 12.9 0.00 0.00 0.00 40 989.9
20260902201550 36 32 4.8 11.3 0.00 0.00 0.00 40 990.1
20260902200040 37 92 3.2 16.1 0.00 0.00 0.00 42 990.3
20260902194537 36 359 4.8 12.9 0.00 0.00 0.00 43 990.7
20260902193043 36 3 1.6 9.7 0.00 0.00 0.00 43 990.9
20260902191533 36 123 3.2 9.7 0.00 0.00 0.00 44 991.2
20260902190030 36 96 4.8 14.5 0.00 0.00 0.00 44 991.3
20260902184527 36 103 4.8 17.7 0.00 0.00 0.00 44 991.5
20260902183029 36 139 4.8 12.9 0.00 0.00 0.00 44 991.7
20260902181521 35 123 6.4 12.9 0.00 0.00 0.00 45 992.1
20260902180017 34 114 3.2 12.9 0.00 0.00 0.00 48 992.4
20260902174514 35 147 4.8 14.5 0.00 0.00 0.00 49 992.7
20260902173015 34 359 4.8 9.7 0.00 0.00 0.00 48 993.0
20260902171505 33 101 4.8 9.7 0.00 0.00 0.00 50 993.2
20260902170004 33 109 3.2 11.3 0.00 0.00 0.00 53 993.3
20260902164500 33 237 1.6 8.0 0.00 0.00 0.00 51 993.5
20260902163102 32 141 3.2 11.3 0.00 0.00 0.00 54 993.6
20260902161554 32 134 3.2 6.4 0.00 0.00 0.00 55 993.7
20260902160059 32 78 3.2 12.9 0.00 0.00 0.00 56 993.8
20260902154550 32 360 1.6 9.7 0.00 0.00 0.00 56 993.7
20260902153053 31 160 0.0 8.0 0.00 0.00 0.00 58 993.7
20260902151545 31 115 1.6 6.4 0.00 0.00 0.00 60 993.7
20260902150042 30 238 1.6 6.4 0.00 0.00 0.00 62 993.7
20260902144540 30 322 1.6 4.8 0.00 0.00 0.00 62 993.6
20260902143037 29 258 3.2 8.0 0.00 0.00 0.00 63 993.8
20260902141534 29 184 3.2 6.4 0.00 0.00 0.00 65 993.7
20260902140032 28 126 3.2 9.7 0.00 0.00 0.00 65 993.7
20260902134535 28 78 3.2 9.7 0.00 0.00 0.00 66 993.7
20260902133030 27 122 3.2 8.0 0.00 0.00 0.00 69 993.6
20260902131538 27 136 0.0 4.8 0.00 0.00 0.00 70 993.5
20260902130025 27 136 0.0 4.8 0.00 0.00 0.00 71 993.3
20260902124519 27 69 1.6 4.8 0.00 0.00 0.00 71 993.1
20260902123016 27 117 0.0 6.4 0.00 0.00 0.00 72 993.1
20260902121514 27 113 1.6 4.8 0.00 0.00 0.00 71 992.9
20260902120010 27 127 0.0 3.2 0.00 0.00 0.00 70 992.9
20260902114513 27 127 0.0 1.6 0.00 0.00 0.00 70 992.7
20260902113006 27 127 0.0 4.8 0.00 0.00 0.00 70 992.8
20260902111506 27 104 1.6 4.8 0.00 0.00 0.00 69 992.9
20260902110007 27 160 1.6 3.2 0.00 0.00 0.00 68 993.0
20260902104504 27 160 0.0 0.0 0.00 0.00 0.00 68 992.8
20260902103001 27 160 0.0 0.0 0.00 0.00 0.00 67 992.8
20260902101603 27 160 0.0 0.0 0.00 0.00 0.00 66 992.8
20260902100059 28 160 0.0 1.6 0.00 0.00 0.00 66 992.8
20260902094557 28 160 0.0 3.2 0.00 0.00 0.00 66 992.7
20260902093101 28 231 0.0 3.2 0.00 0.00 0.00 65 992.7
20260902091553 28 131 0.0 0.0 0.00 0.00 0.00 63 992.7
20260902090052 28 131 0.0 1.6 0.00 0.00 0.00 62 992.7
20260902084552 29 139 1.6 6.4 0.00 0.00 0.00 62 992.7
20260902083050 29 104 1.6 6.4 0.00 0.00 0.00 61 992.8
20260902081547 29 110 1.6 6.4 0.00 0.00 0.00 62 992.8
20260902080046 29 214 0.0 4.8 0.00 0.00 0.00 62 992.8
20260902074554 30 230 0.0 11.3 0.00 0.00 0.00 61 992.7
20260902073042 30 124 1.6 6.4 0.00 0.00 0.00 60 992.8